Hourly Weather Achalla

Today, 23 April, Friday

Time Temperature Precipitation Wind Pressure Humidity
00:00 +28°C° 0 mm 2 mps 753 mmHg 82%
01:00 +28°C° 0.1 mm 2 mps 753 mmHg 83%
02:00 +28°C° 0.1 mm 2 mps 752 mmHg 84%
03:00 +28°C° 0.1 mm 2 mps 752 mmHg 86%
04:00 +28°C° 0 mm 1 mps 752 mmHg 86%
05:00 +28°C° 0 mm 1 mps 753 mmHg 86%
06:00 +28°C° 0 mm 1 mps 753 mmHg 86%
07:00 +30°C° 0 mm 1 mps 753 mmHg 77%
08:00 +32°C° 0 mm 2 mps 754 mmHg 69%
09:00 +34°C° 0 mm 2 mps 754 mmHg 60%
10:00 +36°C° 0 mm 2 mps 753 mmHg 54%
11:00 +38°C° 0 mm 3 mps 753 mmHg 48%
12:00 +39°C° 0 mm 3 mps 752 mmHg 42%
13:00 +38°C° 0.1 mm 3 mps 751 mmHg 44%
14:00 +37°C° 0.1 mm 3 mps 750 mmHg 47%
15:00 +36°C° 0.1 mm 4 mps 749 mmHg 49%
16:00 +34°C° 5.5 mm 3 mps 750 mmHg 61%
17:00 +30°C° 5.5 mm 3 mps 750 mmHg 73%
18:00 +27°C° 5.5 mm 2 mps 751 mmHg 85%
19:00 +27°C° 1.4 mm 2 mps 752 mmHg 86%
20:00 +27°C° 1.4 mm 1 mps 752 mmHg 87%
21:00 +27°C° 1.4 mm 1 mps 752 mmHg 87%
22:00 +27°C° 0 mm 1 mps 752 mmHg 88%
23:00 +27°C° 0 mm 1 mps 752 mmHg 90%

Tomorrow, 24 April, Saturday

Time Temperature Precipitation Wind Pressure Humidity
00:00 +27°C° 0 mm 1 mps 753 mmHg 91%
01:00 +27°C° 0 mm 2 mps 752 mmHg 92%
02:00 +27°C° 0 mm 2 mps 752 mmHg 92%
03:00 +27°C° 0 mm 2 mps 752 mmHg 93%
04:00 +27°C° 0 mm 2 mps 752 mmHg 93%
05:00 +27°C° 0 mm 1 mps 753 mmHg 93%
06:00 +27°C° 0 mm 1 mps 753 mmHg 93%
07:00 +29°C° 0 mm 2 mps 753 mmHg 84%
08:00 +30°C° 0 mm 2 mps 754 mmHg 76%
09:00 +33°C° 0 mm 3 mps 754 mmHg 67%
10:00 +35°C° 0 mm 3 mps 753 mmHg 61%
11:00 +36°C° 0 mm 2 mps 753 mmHg 54%
12:00 +37°C° 0 mm 2 mps 752 mmHg 48%
13:00 +36°C° 0.1 mm 2 mps 752 mmHg 53%
14:00 +35°C° 0.1 mm 2 mps 751 mmHg 59%
15:00 +34°C° 0.1 mm 2 mps 751 mmHg 64%
16:00 +33°C° 0.4 mm 3 mps 751 mmHg 67%
17:00 +31°C° 0.4 mm 3 mps 751 mmHg 70%
18:00 +30°C° 0.4 mm 3 mps 752 mmHg 73%
19:00 +29°C° 0.3 mm 3 mps 752 mmHg 76%
20:00 +29°C° 0.3 mm 2 mps 753 mmHg 80%
21:00 +28°C° 0.3 mm 2 mps 753 mmHg 84%
22:00 +28°C° 0 mm 1 mps 753 mmHg 85%
23:00 +27°C° 0 mm 1 mps 753 mmHg 86%

Day after tomorrow, 25 April, Sunday

Time Temperature Precipitation Wind Pressure Humidity
00:00 +27°C° 0 mm 1 mps 753 mmHg 88%
01:00 +27°C° 0 mm 1 mps 753 mmHg 89%
02:00 +27°C° 0 mm 1 mps 752 mmHg 89%
03:00 +27°C° 0 mm 1 mps 752 mmHg 90%
04:00 +27°C° 0 mm 1 mps 752 mmHg 90%
05:00 +27°C° 0 mm 1 mps 753 mmHg 90%
06:00 +27°C° 0 mm 1 mps 753 mmHg 90%
07:00 +28°C° 0 mm 2 mps 754 mmHg 82%
08:00 +30°C° 0 mm 2 mps 754 mmHg 74%
09:00 +32°C° 0 mm 2 mps 755 mmHg 67%
10:00 +34°C° 0 mm 2 mps 754 mmHg 60%
11:00 +36°C° 0 mm 2 mps 753 mmHg 53%
12:00 +37°C° 0 mm 2 mps 752 mmHg 46%
13:00 +37°C° 0 mm 2 mps 752 mmHg 46%
14:00 +37°C° 0 mm 2 mps 751 mmHg 46%
15:00 +37°C° 0 mm 2 mps 751 mmHg 45%
16:00 +36°C° 0 mm 2 mps 751 mmHg 51%
17:00 +34°C° 0 mm 2 mps 751 mmHg 56%
18:00 +32°C° 0 mm 2 mps 751 mmHg 61%
19:00 +31°C° 0 mm 2 mps 752 mmHg 65%
20:00 +30°C° 0 mm 2 mps 752 mmHg 69%
21:00 +30°C° 0 mm 2 mps 753 mmHg 73%
22:00 +29°C° 0.1 mm 2 mps 753 mmHg 76%
23:00 +29°C° 0.1 mm 2 mps 753 mmHg 79%

26 April, Monday

Time Temperature Precipitation Wind Pressure Humidity
00:00 +28°C° 0.1 mm 2 mps 753 mmHg 82%
01:00 +28°C° 0.7 mm 2 mps 753 mmHg 85%
02:00 +27°C° 0.7 mm 2 mps 753 mmHg 88%
03:00 +27°C° 0.7 mm 2 mps 752 mmHg 91%
04:00 +27°C° 0 mm 1 mps 753 mmHg 91%
05:00 +27°C° 0 mm 1 mps 753 mmHg 90%
06:00 +27°C° 0 mm 1 mps 754 mmHg 90%
07:00 +29°C° 0 mm 1 mps 754 mmHg 82%
08:00 +31°C° 0 mm 2 mps 754 mmHg 74%
09:00 +32°C° 0 mm 2 mps 755 mmHg 66%
10:00 +35°C° 0 mm 2 mps 754 mmHg 60%
11:00 +36°C° 0 mm 2 mps 753 mmHg 53%
12:00 +38°C° 0 mm 2 mps 752 mmHg 47%
13:00 +38°C° 0 mm 2 mps 752 mmHg 46%
14:00 +38°C° 0 mm 2 mps 751 mmHg 46%
15:00 +38°C° 0 mm 2 mps 750 mmHg 45%
16:00 +36°C° 0.1 mm 2 mps 751 mmHg 51%
17:00 +34°C° 0.1 mm 3 mps 751 mmHg 58%
18:00 +33°C° 0.1 mm 3 mps 751 mmHg 64%
19:00 +31°C° 0.1 mm 3 mps 752 mmHg 68%
20:00 +30°C° 0.1 mm 2 mps 752 mmHg 73%
21:00 +29°C° 0.1 mm 2 mps 752 mmHg 77%
22:00 +29°C° 0.4 mm 2 mps 752 mmHg 81%
23:00 +28°C° 0.4 mm 1 mps 752 mmHg 84%

27 April, Tuesday

Time Temperature Precipitation Wind Pressure Humidity
00:00 +28°C° 0.4 mm 1 mps 752 mmHg 88%
01:00 +28°C° 0 mm 1 mps 752 mmHg 88%
02:00 +27°C° 0 mm 2 mps 752 mmHg 89%
03:00 +27°C° 0 mm 2 mps 751 mmHg 89%
04:00 +27°C° 0 mm 1 mps 752 mmHg 89%
05:00 +27°C° 0 mm 1 mps 752 mmHg 89%
06:00 +27°C° 0 mm 1 mps 753 mmHg 89%
07:00 +29°C° 0 mm 1 mps 753 mmHg 81%
08:00 +31°C° 0 mm 2 mps 753 mmHg 73%
09:00 +34°C° 0 mm 2 mps 754 mmHg 64%
10:00 +34°C° 0 mm 2 mps 753 mmHg 62%
11:00 +35°C° 0 mm 2 mps 753 mmHg 59%
12:00 +35°C° 0 mm 2 mps 752 mmHg 57%
13:00 +35°C° 0.1 mm 2 mps 751 mmHg 56%
14:00 +35°C° 0.1 mm 2 mps 751 mmHg 56%
15:00 +34°C° 0.1 mm 1 mps 750 mmHg 56%
16:00 +33°C° 0 mm 1 mps 751 mmHg 60%
17:00 +32°C° 0 mm 1 mps 751 mmHg 64%
18:00 +31°C° 0 mm 1 mps 751 mmHg 69%
19:00 +31°C° 0 mm 2 mps 751 mmHg 72%
20:00 +30°C° 0 mm 2 mps 752 mmHg 75%
21:00 +29°C° 0 mm 2 mps 752 mmHg 78%
22:00 +29°C° 0.5 mm 2 mps 752 mmHg 81%
23:00 +28°C° 0.5 mm 2 mps 752 mmHg 84%

28 April, Wednesday

Time Temperature Precipitation Wind Pressure Humidity
00:00 +28°C° 0.5 mm 1 mps 752 mmHg 87%
01:00 +28°C° 0 mm 1 mps 752 mmHg 87%
02:00 +27°C° 0 mm 1 mps 751 mmHg 88%
03:00 +27°C° 0 mm 1 mps 751 mmHg 89%
04:00 +27°C° 0 mm 1 mps 752 mmHg 89%
05:00 +27°C° 0 mm 1 mps 752 mmHg 89%
06:00 +27°C° 0 mm 1 mps 752 mmHg 89%
07:00 +29°C° 0 mm 2 mps 753 mmHg 80%
08:00 +31°C° 0 mm 2 mps 753 mmHg 71%
09:00 +34°C° 0 mm 2 mps 753 mmHg 63%
10:00 +35°C° 0 mm 2 mps 753 mmHg 57%
11:00 +37°C° 0 mm 2 mps 752 mmHg 51%
12:00 +38°C° 0 mm 2 mps 751 mmHg 45%
13:00 +38°C° 0 mm 2 mps 751 mmHg 48%
14:00 +37°C° 0 mm 2 mps 750 mmHg 51%
15:00 +36°C° 0 mm 3 mps 750 mmHg 54%
16:00 +35°C° 0 mm 3 mps 750 mmHg 57%
17:00 +34°C° 0 mm 2 mps 750 mmHg 59%
18:00 +32°C° 0 mm 2 mps 750 mmHg 62%
19:00 +31°C° 0.1 mm 2 mps 751 mmHg 67%
20:00 +30°C° 0.1 mm 3 mps 752 mmHg 72%
21:00 +29°C° 0.1 mm 3 mps 752 mmHg 77%
22:00 +29°C° 0.6 mm 2 mps 752 mmHg 81%
23:00 +28°C° 0.6 mm 2 mps 752 mmHg 84%
Show more